PSLV R/B, 40058

Orbit data source: Space-Track

PSLV R/B, 40058 is space debris in SSO originally from a launch on Mon, 30 Jun 2014 UTC launched from the Sirharikota (SRI). Debris objects in space refer to the collection of defunct objects orbiting the Earth. Examples of debris include non-operational satellites, rocket bodies, and fragments generated from explosions, collisions, or faulty payload assembly.

Loading next visibility...
Identifier
40058, 2014-034F
Orbit
SSO
Country
Flag of ININ / IND
Related business
Manufacturer
VSSC/LPSC
Mission
Spacecraft
Bus & Motor
PS-4, Unknown motor
Mass
920 kg wet, 920 kg dry
Launch date (UTC)
2014-06-30 (11 years ago)
Launch vehicle
Unknown
Launch site
Sirharikota (SRI)
Object type
Payload
Rocket body
Debris
Shape & HBR
Cyl + Cyl + 2 Nozzle, 1.6 m
Radar Cross Section
6.185 m², Large (>1 m²)

Expand to show TLE details & history
Last TLE update: 8 hours ago

TLE from 8 hours ago
0 PSLV R/B
1 40058U 14034F   25243.52830774  .00001578  00000-0  19809-3 0  9992
2 40058  98.3204  88.5668 0020204 187.0125 173.0808 14.83565987603112
Epoch: 2025-08-31T12:40Z
TLE epoch observation values (Epoch: 2025-08-31T12:40:45.788Z)
Latitude
-0.00004°
Longitude
-81.57093°
Altitude
635.14 km
Speed
7.533 km/s
True Right ascension
05h 54m 16s
True Declination
0° 00' 00"
Sunlit
Object was in daylight at epoch
Visualization orbit readout
Latitude
Unknown
Longitude
Unknown
Altitude
Unknown
Speed
Unknown
Apparent Right ascension
Unknown
Apparent Declination
Unknown
Sunlit
N/A
Visualization observer readout
Local Sidereal Time
12:19:58
Azimuth
Unknown
Elevation
Unknown
Doppler factor
Unknown
Orbital elements
Apogee altitude
629.275 km
Perigee altitude
601.017 km
Semi-major axis
6,993.283 km
Eccentricity
0.00202
Inclination
98.3204°
RAAN
88.5668°
Arg. of periapsis
187.0125°
True anomaly
173.10862°
Mean anomaly
173.0808°
Eccentric anomaly
173.09472°
Mean motion
3.71126 °/min
Orbital period
97 mins
BSTAR
0.00019809
Loading maneuver chart data...
Computing Atmospheric mass density...
Loading historical data...
Loading historical data...
Loading historical data...
Loading historical data...
Loading historical data...
Loading historical data...
Loading historical data...
Other satellites on launch #34 in the year 2014 (2014-06-30 UTC)

Documentation

Showing up to 5 results
|